Home   Weather   Johor Bahru   Past weeks

Flag for Malaysia Past Weather in Johor Bahru, Malaysia — Yesterday and Last 2 Weeks

Now
82 °F

Passing clouds.


Feels Like: 91 °F
Forecast: 76 / 86 °F
Wind: 1 mph from North

Location: Singapore / Paya Lebar

Current Time: Apr 30, 2017 at 2:02:48 am

Latest Report: Apr 29, 2017 at 11:00 pm


Visibility: N/A

Pressure: 29.86 "Hg

Humidity: 84%

Dew Point: 77 °F

Location of Johor BahruLocation

Past Weather in Johor Bahru — Graph

°F

Johor Bahru Temperature Yesterday

Maximum temperature yesterday: 86 °F (at 10:00 am)
Minimum temperature yesterday: 81 °F (at 5:00 am)
Average temperature yesterday: 84 °F

High & Low Weather Summary for the Past Weeks

 TemperatureHumidityPressure
High95 °F (Apr 17, 4:00 pm)94% (Apr 18, 4:00 pm)29.95 "Hg (Apr 18, 4:00 pm)
Low77 °F (Apr 18, 4:00 pm)26% (Apr 15, 3:00 pm)29.74 "Hg (Apr 15, 3:00 pm)
Average84 °F79%29.82 "Hg
* Reported Apr 14 11:00 pm — Apr 29 11:00 pm, Johor Bahru, Weather by CustomWeather, © 2017

Note: Actual official high and low records may vary slightly from our data, if they occured in-between our weather recording intervals... More about our weather records

Advertising

Johor Bahru Weather History for the Previous 24 Hours

Scroll right to see more
 ConditionsComfort  
Time TempWeatherWind HumidityBarometerVisibility
11:00 pm
Sat, Apr 29
82 °FPassing clouds.1 mph84%29.86 "HgN/A
10:00 pm82 °FPartly cloudy.1 mph84%29.86 "HgN/A
9:00 pm82 °FPassing clouds.2 mph84%29.83 "HgN/A
8:00 pm84 °FPassing clouds.3 mph79%29.83 "HgN/A
7:00 pm84 °FScattered clouds.3 mph74%29.80 "HgN/A
6:00 pm84 °FSprinkles. Passing clouds.5 mph79%29.80 "HgN/A
5:20 pm86 °FScattered showers. Scattered clouds.3 mph75%29.80 "Hg5 mi
5:00 pm84 °FScattered showers. Partly sunny.2 mph79%29.80 "HgN/A
4:00 pm84 °FPartly sunny.6 mph79%29.80 "HgN/A
3:00 pm84 °FPartly sunny.8 mph79%29.80 "HgN/A
2:00 pm86 °FPartly sunny.6 mph75%29.83 "HgN/A
1:00 pm86 °FPartly sunny.7 mph70%29.86 "HgN/A
12:00 pm84 °FPartly sunny.3 mph74%29.86 "HgN/A
11:00 am86 °FPartly sunny.6 mph70%29.89 "HgN/A
10:00 am86 °FScattered showers. Partly sunny.5 mph70%29.89 "HgN/A
9:00 am84 °FPartly sunny.1 mph79%29.89 "HgN/A
8:00 am81 °FPartly sunny.2 mph84%29.86 "HgN/A
7:00 am81 °FScattered showers. Partly sunny.2 mph89%29.86 "Hg5 mi
6:00 am81 °FPassing clouds.2 mph89%29.83 "HgN/A
5:00 am81 °FPassing clouds.2 mph84%29.80 "HgN/A
Weather by CustomWeather, © 2017

See weather overviewHow to use our weather pages